Kuiper-00142

operational
NORAD ID: 65766 Int'l Des: 2025-217E Owner: KUIP Country: US Constellation: kuiper
LEOCIRCULAR

About Kuiper-00142

Description loading...

Live Position

Loading 3D Globe...

Upcoming Passes

Altitude History

Altitude vs Time

uPlot chart will show altitude changes over time

Two-Line Element Set

1 65766U 25217E 26063.15388183 .00000662 00000-0 11578-3 0 9990
2 65766 51.9010 60.0702 0000449 78.7638 281.3375 14.79930156 24166
Epoch: Mar 4, 2026 • Age: 9 hours

Current Status

Altitude 629.9 km
Velocity 7.54 km/s
Sub-Earth Point 2.36°N, 130.36°E
Launch Date Sep 25, 2025
Age 0.4 years
Type internet

Technical Details

Classification Payload
Mass 490.00 kg
Dry Mass 490.00 kg
Total Mass 490.00 kg
Length 1.80 m
Diameter 0.70 m
Span 5.00 m
Shape Box + 2 pan
Manufacturer KUIP
Bus Type Kuiper
Phase Status In Orbit
Owner/State KUIP/US

Large Constellations

Loading constellations...